Chillicothe, MO

7:29 PM CDT on April 22, 2018 (GMT -0500)
Chillicothe

Weather History for KCDJ - October, 2011

Change the Weather History Date:

Wednesday, October 26, 2011

  Actual Average (KIRK) Record (KIRK)
Temperature  
Mean Temperature 52 °F -  
Max Temperature 60 °F 62 °F 86 °F (1927)
Min Temperature 46 °F 40 °F 17 °F (1942)
Degree Days  
Heating Degree Days 14    
Growing Degree Days 2 (Base 50)    
Moisture  
Dew Point 40 °F    
Average Humidity 66    
Maximum Humidity 83    
Minimum Humidity 49    
Precipitation  
Precipitation 0.03 in - - ()
Sea Level Pressure  
Sea Level Pressure 30.01 in    
Wind  
Wind Speed 6 mph (North)    
Max Wind Speed 12 mph    
Max Gust Speed 20 mph    
Averages and records for this station are not official NWS values.
T = Trace of Precipitation, MM = Missing Value Source: NWS Daily Summary

Daily Weather History Graph

Daily Weather History Graph

Search for Another Location

Airport or City:

Astronomy

Oct. 26, 2011 Rise Set
Actual Time 7:36 AM CDT 6:19 PM CDT
Civil Twilight 7:08 AM CDT 6:47 PM CDT
Nautical Twilight 6:36 AM CDT 7:19 PM CDT
Astronomical Twilight 6:05 AM CDT 7:50 PM CDT
Moon 7:24 AM CDT (10/26) 6:02 PM CDT (10/26)
Length of Visible Light 11h 39m
Length of Day
10h 43m
Waning Crescent, 0% of the Moon is Illuminated
Oct 26
Waning Crescent
Oct 26
New
Nov 2
First Quarter
Nov 10
Full
Nov 18
Last Quarter

Hourly Weather History & Observations

Time (CDT) Temp. Dew Point Humidity Pressure Visibility Wind Dir Wind Speed Gust Speed Precip Events Conditions
12:52 AM 54.0 °F 43.0 °F 66% 29.89 in - NNW 5.8 mph - N/A   Unknown
1:52 AM 52.0 °F 42.1 °F 69% 29.91 in - NNW 4.6 mph - N/A   Unknown
2:52 AM 51.1 °F 42.1 °F 71% 29.93 in - Variable 6.9 mph - N/A   Unknown
3:52 AM 48.9 °F 41.0 °F 74% 29.95 in - North 4.6 mph - N/A   Unknown
4:52 AM 46.9 °F 41.0 °F 80% 29.96 in - Variable 5.8 mph - N/A   Unknown
5:52 AM 48.0 °F 41.0 °F 77% 29.96 in - North 5.8 mph - N/A   Unknown
6:52 AM 48.0 °F 41.0 °F 77% 29.97 in - Variable 4.6 mph - N/A   Unknown
7:52 AM 48.0 °F 41.0 °F 77% 29.99 in - North 5.8 mph - N/A   Unknown
8:52 AM 48.9 °F 41.0 °F 74% 30.05 in - North 5.8 mph - N/A   Unknown
9:52 AM 46.9 °F 42.1 °F 83% 30.04 in - North 4.6 mph - 0.02 in   Unknown
10:52 AM 48.9 °F 42.1 °F 77% 30.04 in - North 6.9 mph - 0.01 in   Unknown
11:52 AM 52.0 °F 42.1 °F 69% 30.03 in - North 8.1 mph - N/A   Unknown
12:52 PM 55.0 °F 42.1 °F 62% 30.02 in - NNW 8.1 mph 17.3 mph N/A   Unknown
1:52 PM 55.9 °F 41.0 °F 57% 30.00 in - North 6.9 mph 17.3 mph N/A   Unknown
2:52 PM 57.9 °F 39.9 °F 51% 30.00 in - North 9.2 mph 19.6 mph N/A   Unknown
3:52 PM 57.9 °F 39.0 °F 49% 30.00 in - North 11.5 mph 19.6 mph N/A   Unknown
4:52 PM 57.0 °F 37.9 °F 49% 30.01 in - NNE 10.4 mph 18.4 mph N/A   Unknown
5:52 PM 55.0 °F 37.9 °F 53% 30.03 in - North 5.8 mph - N/A   Unknown
6:52 PM 53.1 °F 37.0 °F 55% 30.04 in - North 5.8 mph - N/A   Unknown
7:52 PM 52.0 °F 37.0 °F 57% 30.06 in - North 5.8 mph - N/A   Unknown
8:52 PM 51.1 °F 37.9 °F 61% 30.07 in - North 4.6 mph - N/A   Unknown
9:52 PM 50.0 °F 37.9 °F 63% 30.06 in - North 5.8 mph - N/A   Unknown
10:52 PM 50.0 °F 37.9 °F 63% 30.07 in - Calm Calm - N/A   Unknown
11:52 PM 48.9 °F 37.9 °F 66% 30.06 in - NNW 3.5 mph - N/A   Unknown